Lid_Strength_Index
1 1 1 1 1 1 1 1 2 2 2 2 2 2 2 2 3 3 3 2 5 7 5 3 3 5 5 5 7 6 6 8 8 10 9 8 9 8 8 7 9 10 11 12 10 11 12 5 5 7 6 5 3 3
1 1 1 1 2 1 1 2 2 2 2 2 2 2 2 2 2 3 5 3 2 6 5 1 1 1 2 2 5 4 6 7 5 10 7 8 9 8 8 10 6 10 8 8 8 8 5 4 5 4 4 5 5 4
1 1 1 1 1 1 1 2 3 3 2 2 2 2 2 2 3 3 4 3 4 6 5 4 4 1 0 1 1 7 5 4 6 5 8 8 9 7 10 9 9 7 6 8 8 6 6 5 4 4 4 4 4 4
1 2 1 1 1 1 1 2 3 3 3 2 2 3 3 2 3 3 4 3 4 5 8 5 0 2 -0 0 1 2 4 3 4 5 8 9 9 6 9 8 8 7 7 9 8 7 6 5 5 4 4 4 4 3
2 2 1 1 2 2 1 2 3 3 3 2 2 3 3 3 3 4 3 3 2 6 8 6 2 1 0 1 2 2 3 5 6 8 9 9 6 7 6 7 8 6 7 8 10 6 6 6 4 4 4 4 4 4
2 1 1 2 2 2 2 3 3 3 3 3 2 2 3 3 4 5 8 3 2 3 7 9 2 3 2 1 2 3 3 4 5 7 8 7 5 7 10 11 7 6 5 6 8 5 5 4 3 3 4 4 4 4
2 1 2 2 2 3 3 3 3 3 3 2 3 3 3 3 4 7 7 4 3 3 8 9 7 3 3 2 3 3 2 5 6 6 7 7 6 6 9 12 8 6 6 6 6 5 5 5 5 3 3 5 4 3
2 2 2 2 3 3 3 3 3 3 3 2 3 3 3 3 4 6 4 3 3 5 6 9 8 6 2 5 6 3 4 4 5 7 6 7 6 7 11 8 8 8 7 8 7 5 5 3 3 3 3 6 5 5
2 2 2 3 3 3 3 3 2 3 2 3 3 3 3 5 7 5 3 2 2 5 10 10 10 11 2 4 4 4 4 8 4 7 7 6 8 11 8 7 8 7 6 6 8 6 5 4 4 3 4 5 6 6
3 3 3 3 3 3 3 2 3 2 2 3 2 5 7 6 3 3 5 7 7 7 7 10 8 10 5 4 5 6 5 7 9 6 5 8 8 6 7 5 6 5 5 5 7 8 6 5 4 4 4 4 6 6
3 3 3 3 3 3 2 2 3 2 3 2 4 6 4 3 5 7 11 11 11 11 9 7 7 9 3 8 7 4 7 6 11 9 8 10 10 8 6 5 5 5 5 4 5 5 5 4 4 4 4 5 4 4
3 4 4 3 3 3 2 2 3 2 0 3 2 2 3 6 9 11 13 13 13 13 9 9 7 6 5 3 7 6 8 7 12 6 10 10 9 6 5 5 4 4 5 5 4 5 5 4 3 4 4 3 3 3
3 4 4 3 3 2 2 2 3 3 3 1 3 5 5 5 12 12 14 12 11 12 8 7 8 6 4 4 7 8 10 10 7 10 11 10 7 6 5 5 5 4 4 4 5 5 4 4 2 2 3 3 3 3
4 4 4 3 3 2 2 2 2 2 1 4 6 12 8 9 9 8 9 8 7 7 8 8 8 8 7 8 10 12 10 9 12 14 13 9 8 6 5 4 5 5 4 4 4 7 6 4 3 2 2 2 2 3
4 4 4 3 3 3 2 2 3 -1 2 5 5 11 8 5 5 5 4 5 5 4 6 8 8 9 10 11 11 10 12 14 13 13 11 7 7 6 6 5 5 5 4 4 3 4 5 4 4 3 2 2 2 2
3 3 2 4 4 3 3 1 -1 -0 1 4 4 6 5 6 6 5 5 5 3 4 4 5 8 10 11 10 11 12 13 14 11 8 7 6 6 7 6 5 5 4 4 4 3 3 3 3 4 3 2 2 2 2
4 -0 4 4 4 3 3 0 1 3 4 5 5 3 4 5 5 5 4 4 2 4 6 5 9 10 8 11 12 10 12 8 6 6 5 5 6 6 6 6 5 5 4 4 5 4 3 4 4 5 5 5 2 3
0 0 3 4 4 1 -1 0 2 3 5 4 5 4 4 3 4 4 3 3 3 4 5 7 5 8 10 12 11 8 7 5 4 4 4 5 5 5 5 6 5 4 5 4 5 4 4 4 5 5 5 5 6 5
3 3 4 4 3 1 2 2 2 5 4 3 3 3 3 3 3 2 2 2 2 2 4 5 7 8 8 6 6 5 6 6 5 4 4 3 3 3 4 4 3 4 4 5 4 4 4 3 4 4 4 4 5 4
4 4 3 3 3 2 4 3 1 3 5 4 2 3 3 4 3 3 3 3 3 4 5 7 7 6 5 4 4 5 5 4 5 5 5 4 3 2 3 3 3 3 4 3 3 5 3 3 3 2 3 4 5 5
2 0 2 1 0 1 2 3 3 3 3 4 3 3 3 2 4 4 4 2 4 5 6 4 4 3 2 3 3 3 3 4 4 4 5 5 3 3 3 3 2 3 4 4 3 5 5 4 3 3 3 3 4 4
-1 2 -0 -0 2 2 3 1 3 2 4 4 4 3 4 4 4 4 3 4 5 4 3 3 3 3 3 3 2 2 2 3 3 4 5 4 5 5 4 4 4 4 4 4 3 3 3 3 4 4 4 4 4 3
1 1 1 2 5 6 7 1 5 4 6 5 4 6 5 4 3 2 5 4 4 2 2 2 2 2 2 2 1 2 2 2 4 4 4 4 4 4 4 4 4 4 4 3 2 2 2 4 2 2 3 3 4 4
3 2 5 4 5 7 3 5 3 4 4 6 6 7 6 4 3 5 6 4 3 2 3 3 3 3 2 2 2 2 2 2 3 4 4 4 5 5 4 4 4 4 4 4 3 3 2 2 4 2 2 2 2 3
7 7 6 11 4 6 7 7 6 6 8 6 7 7 6 4 6 6 6 5 3 3 3 3 3 3 3 2 1 2 1 2 3 4 4 4 4 4 4 4 4 4 4 4 5 5 4 4 4 4 4 3 3 4
11 6 9 6 6 6 6 8 7 7 6 7 6 4 4 5 8 8 5 4 3 3 3 2 2 3 2 1 1 1 2 2 2 4 4 4 4 4 5 5 5 5 4 4 5 5 5 5 5 5 5 5 6 5
9 7 4 2 3 4 5 5 4 6 7 7 5 6 6 9 8 6 3 2 2 2 1 1 1 1 2 2 1 1 1 1 2 3 3 3 3 3 4 5 6 5 4 4 4 5 5 5 5 5 5 5 4 5
5 5 7 5 5 4 6 6 6 7 5 4 4 8 8 7 7 3 2 1 1 1 1 1 1 1 1 1 1 1 1 1 1 3 3 3 3 3 3 3 4 7 4 4 4 4 4 4 5 5 5 5 5 4
6 4 4 6 5 5 5 6 5 3 2 4 5 5 5 3 2 2 2 1 1 1 2 2 2 1 1 1 1 2 2 3 5 5 6 6 5 5 4 4 4 4 3 3 6 5 4 4 4 4 4 4 4 3
5 4 5 6 6 6 4 3 3 2 2 2 3 3 3 3 2 0 1 1 2 2 1 1 2 1 2 2 3 3 3 4 4 5 6 6 5 4 4 4 4 4 3 4 4 4 5 4 4 4 4 4 4 4
4 4 5 5 5 3 2 2 2 2 2 3 2 3 4 3 2 0 1 0 2 2 2 2 2 2 2 2 3 4 5 4 4 4 4 4 4 4 4 4 4 4 4 4 4 4 4 4 4 4 5 5 5 4
5 5 5 6 5 3 2 4 4 4 4 4 4 3 4 4 5 3 2 2 2 2 4 2 2 3 3 3 3 4 6 4 4 4 5 5 5 5 4 4 4 4 4 4 4 4 4 5 5 5 5 5 5 4
5 4 5 5 5 5 4 4 5 5 4 5 4 4 4 4 6 3 2 1 2 2 2 3 3 3 3 3 4 4 5 5 7 9 9 9 10 8 5 5 4 4 4 4 4 4 5 5 5 5 5 5 5 4